Regional Weather Roundup
Issued by NWS

Home | Current Version | Previous Version | Graphics & Text | Print | Product List | Glossary On
Versions: 1 2 3 4 5 6 7 8 9 10 11 12 13 14 15 16 17 18 19 20 21 22 23 24 25 26 27 28 29 30 31 32 33 34 35 36 37 38 39 40 41 42 43 44 45 46 47 48 49 50
816
ASUS43 KBIS 250110
RWRND

NORTH DAKOTA REGIONAL WEATHER ROUNDUP
NATIONAL WEATHER SERVICE BISMARCK ND
700 PM CST TUE JAN 24 2017

NOTE: "FAIR" INDICATES FEW OR NO CLOUDS BELOW 12,000 FEET WITH NO
SIGNIFICANT WEATHER AND/OR OBSTRUCTIONS TO VISIBILITY.


NDZ001>003-009>011-017-250200-
NORTHWEST NORTH DAKOTA

CITY           SKY/WX    TMP DP  RH WIND       PRES   REMARKS
WILLISTON      CLOUDY    17  12  80 NW8       29.97R WCI   7
MINOT          CLOUDY    21  16  81 W14       29.93R WCI   8
MINOT AFB      MOCLDY    19  15  85 NW14      29.92R WCI   6
$$

NDZ018>021-031>035-040>046-250200-
SOUTHWEST NORTH DAKOTA

CITY           SKY/WX    TMP DP  RH WIND       PRES   REMARKS
BISMARCK       CLOUDY    24  19  81 NW13      29.93R WCI  12
DICKINSON      CLOUDY    18  13  80 NW10      29.89R WCI   6
GARRISON         N/A     20  15  81 NW14      29.93R WCI   7
HETTINGER ARPT CLOUDY    16  12  84 NW8       29.91R WCI   5
$$

NDZ004>008-012>016-024-026-027-054-250200-
NORTHEAST NORTH DAKOTA

CITY           SKY/WX    TMP DP  RH WIND       PRES   REMARKS
GRAND FORKS    CLOUDY    28  23  81 N3        29.90R
GRND FRKS AFB  CLOUDY    27  25  93 N6        29.90R WCI  20
DEVILS LAKE    CLOUDY    24  21  88 NW9       29.90R WCI  14
$$

NDZ022-023-025-028>030-036>039-047>053-250200-
SOUTHEAST NORTH DAKOTA

CITY           SKY/WX    TMP DP  RH WIND       PRES   REMARKS
FARGO          CLOUDY    29  24  82 N14       29.88R WCI  18
JAMESTOWN      CLOUDY    22  20  92 N17       29.87R WCI   8
$$





USA.gov is the U.S. government's official web portal to all federal, state and local government web resources and services.